Simultaneous Nadir Overpasses (SNOs) Predictions

Prediction of SNOs between GOES-15 and METOP-A Satellite Orbit:

Table of predicted SNOs for the next 14.0 days since TLE Epoch: 5/12/2017
Index Date Time (GOES-15) GOES-15 Lat,Lon METOP-A Lat,Lon Distance(km) Time Diff (sec)
1 05/15/2017 06:29:00 0.12,-135.09 0.22,-134.70 45.31 80
2 05/16/2017 18:47:52 -0.12,-135.09 0.80,-139.26 474.76 80
3 05/17/2017 18:24:32 -0.12,-135.06 -0.33,-134.27 90.34 80
4 05/19/2017 06:43:31 0.12,-134.95 -0.77,-138.85 445.37 80
5 05/20/2017 06:25:31 0.13,-134.91 0.36,-133.86 119.62 80
6 05/21/2017 18:44:22 -0.13,-134.90 0.66,-138.42 401.14 80
7 05/22/2017 18:21:03 -0.13,-134.86 -0.47,-133.43 163.23 80
8 05/24/2017 06:40:01 0.13,-134.74 -0.62,-138.01 373.86 80
9 05/25/2017 06:22:02 0.13,-134.69 0.51,-133.02 190.17 80
10 05/26/2017 18:40:53 -0.13,-134.67 0.51,-137.58 331.89 80




NCC Satellite Simultaneous Nadir Overpasses (SNOs) Prediction Service
